THOR ABLESTAR R/B, 118

Orbit data source: Space-Track

THOR ABLESTAR R/B, 118 is space debris in LEO originally from a launch on Thu, 29 Jun 1961 UTC launched from the Air Force Eastern Test Range (AFETR). Debris objects in space refer to the collection of defunct objects orbiting the Earth. Examples of debris include non-operational satellites, rocket bodies, and fragments generated from explosions, collisions, or faulty payload assembly.

Loading next visibility...
Identifier
118, 1961-015C
Orbit
LEO
Country
Flag of USUS
Related business
Manufacturer
Aerojet
Mission
Spacecraft
Bus & Motor
ABLESTAR, Unknown motor
Mass
~600 kg wet, 600 kg dry
Launch date (UTC)
1961-06-29 (65 years ago)
Launch vehicle
Unknown
Launch site
Air Force Eastern Test Range (AFETR)
Object type
Payload
Rocket body
Debris
Shape & HBR
Unknown
Radar Cross Section
Large (>1 m²)

Expand to show TLE details & history
Last TLE update: 6 hours ago

TLE from 6 hours ago
0 THOR ABLESTAR R/B
1 00118U 61015C   26111.95761303  .00000049  00000-0  80540-4 0  9992
2 00118  66.7641 200.8191 0087726 308.4870  50.8368 14.02716508308255
Epoch: 2026-04-21T22:58Z
TLE epoch observation values (Epoch: 2026-04-21T22:58:57.765Z)
Latitude
-0.00008°
Longitude
6.05244°
Altitude
846.588 km
Speed
7.45 km/s
True Right ascension
13h 23m 16s
True Declination
0° 00' 00"
Sunlit
Object was in full shadow at epoch
Visualization orbit readout
Latitude
Unknown
Longitude
Unknown
Altitude
Unknown
Speed
Unknown
Apparent Right ascension
Unknown
Apparent Declination
Unknown
Sunlit
N/A
Visualization observer readout
Local Sidereal Time
11:54:25
Azimuth
Unknown
Elevation
Unknown
Doppler factor
Unknown
Orbital elements
Apogee altitude
946.489 km
Perigee altitude
819.095 km
Semi-major axis
7,260.929 km
Eccentricity
0.00877
Inclination
66.7641°
RAAN
200.8191°
Arg. of periapsis
308.487°
True anomaly
51.62164°
Mean anomaly
50.8368°
Eccentric anomaly
51.22868°
Mean motion
3.50796 °/min
Orbital period
102.62 mins
BSTAR
0.00008054
Loading maneuver chart data...
Computing Atmospheric mass density...

Documentation

Showing up to 5 results
|